Regional Weather Roundup
Issued by NWS Burlington, VT

Home | Current Version | Previous Version | Text Only | Print | Product List | Glossary On
Versions: 1 2 3 4 5 6 7 8 9 10 11 12 13 14 15 16 17 18 19 20 21 22 23 24 25 26 27 28 29 30 31 32 33 34 35 36 37 38 39 40 41 42 43 44 45 46 47 48 49 50
000
ASUS41 KBTV 020410
RWRBTV
VERMONT REGIONAL WEATHER ROUNDUP
NATIONAL WEATHER SERVICE BURLINGTON VT
1200 AM EDT TUE SEP 02 2014

NOTE: "FAIR" INDICATES FEW OR NO CLOUDS BELOW 12,000 FEET WITH NO
SIGNIFICANT WEATHER AND/OR OBSTRUCTIONS TO VISIBILITY.

* THESE REPORTS ARE NOT UNDER NWS QUALITY CONTROL AND/OR DO NOT
  REPORT WEATHER SUCH AS PRECIPITATION AND FOG.

VTZ001>019-020500-
_____VERMONT_____


CITY           SKY/WX    TMP DP  RH WIND       PRES   REMARKS
BURLINGTON     CLEAR     74  64  71 S8        29.88F
MONTPELIER     CLEAR     64  63  96 CALM      29.98F
MORRISVILLE    FOG       62  60  93 CALM      29.93F VSB 1
ST. JOHNSBURY*   N/A     63  62  97 MISG      29.92F
MIDDLEBURY*    MOCLDY    72  65  79 CALM      29.90F
RUTLAND*       PTCLDY    66  63  88 SE6       29.94S
SPRINGFIELD    MOCLDY    64  63  96 CALM      29.96S
HIGHGATE*      FAIR      67  65  93 CALM      29.87F
NEWPORT*       FAIR      62  61  98 SW5       29.93F
BENNINGTON     MOCLDY    68  65  90 CALM      29.95S
SUTTON*          N/A     63 N/A N/A MISG        N/A

_____LAKE CHAMPLAIN_____


CITY           SKY/WX    TMP DP  RH WIND       PRES   REMARKS
COLCHESTER RF*   N/A     73  70  88 S12         N/A
DIAMOND ISL*     N/A     73  66  78 S7          N/A

$$

NYZ007-026>031-035-052-083-020500-
_____NORTHERN NEW YORK_____


CITY           SKY/WX    TMP DP  RH WIND       PRES   REMARKS
PLATTSBURGH    CLEAR     66  64  93 CALM      29.87F
SARANAC LAKE   CLEAR     58  57  97 CALM      29.92F FOG
MASSENA        PTCLDY    68  67  96 CALM      29.82F
OGDENSBURG*    PTCLDY    72  68  88 S5        29.81F
POTSDAM*       PTCLDY    73  70  88 S8        29.83F
WATERTOWN      MOCLDY    77  66  68 S6        29.83F
FT DRUM        PTCLDY    73  66  78 S8        29.85F
ALBANY         MOCLDY    76  69  79 S6        29.92S
GLENS FALLS    CLEAR     68  66  93 CALM      29.91F

$$
NHZ002-005-011-020500-
_____NEW HAMPSHIRE_____


CITY           SKY/WX    TMP DP  RH WIND       PRES   REMARKS
LEBANON        PTCLDY    66  62  87 CALM      29.94S
KEENE          PTCLDY    66  57  72 CALM      29.96S
MT WASHINGTON  CLEAR     52  50  93 W21         N/A
PLYMOUTH       FOG       60  60 100 CALM      29.95S VSB 1/4
WHITEFIELD     CLEAR     59  57  93 CALM      29.96S

$$

_____REGIONAL QUEBEC LOCATIONS_____


CITY           SKY/WX    TMP DP  RH WIND       PRES   REMARKS
MONTREAL       CLEAR     72  66  83 SE6       29.84F
QUEBEC CITY    PTCLDY    61  59  94 NE7       29.91S
SHERBROOKE     CLEAR     61  61 100 E5        29.91F FOG

_____REGIONAL ONTARIO LOCATIONS_____


CITY           SKY/WX    TMP DP  RH WIND       PRES   REMARKS
OTTAWA         MOCLDY    72  68  88 SE9       29.80F

______KEY______
VSB  - VISIBILITY IN MILES
WCI  - WIND CHILL INDEX
HX   - HEAT INDEX
$$
NNNN



USA.gov is the U.S. government's official web portal to all federal, state and local government web resources and services.